#timestamp,LO_Frequency,Hit,StdDev 
1582476495.4,286046985.3,P
1582476515.2,286046985.7,P
1582476535.1,286046985.3,P
1582476536.0,286046985.3,Y
1582476555.8,286047002.8,P
1582476575.6,286046999.8,N
1582476595.5,286047000.0,N
1582476615.3,286047000.2,N
1582476635.1,286047000.4,N
1582476655.9,286047000.0,N
1582476675.7,286047000.6,N
1582476695.6,286047001.0,N
1582476715.4,286046998.3,N
1582476735.2,286046998.6,N
1582476755.1,286046998.4,N
1582476756.0,286046998.4,N
1582476775.8,286047011.9,Y
1582476795.7,286047000.6,P
1582476815.5,286047000.9,N
1582476835.3,286047000.9,N
1582476855.2,286047000.2,N
1582476875.0,286047000.6,N
1582476875.9,286047000.6,N
1582476895.7,286047000.5,N
1582476915.6,286046998.1,Y
1582476935.4,286046998.8,P
1582476955.3,286046998.1,N
1582476975.1,286046998.5,N
1582476995.8,286046998.6,N
1582477015.7,286046998.2,N
1582477035.5,286046998.3,N
1582477055.4,286046998.6,N
1582477075.2,286046998.6,N
1582477095.0,286046999.3,N
1582477095.9,286046999.3,N
1582477115.8,286046999.4,N
1582477135.6,286046998.6,N
1582477155.4,286046996.8,Y
1582477175.3,286046998.5,P
1582477195.1,286047001.0,P
